Showing default

SJ-7, 28737

Orbit data source: Space-Track

SJ-7, 28737 is a payload satellite owned by CASC (CN) in SSO that was launched on Tue, 05 Jul 2005 UTC via a CHANG ZHENG 2D launch vehicle from the Jiuquan Satellite Launch Center, China (JSC). Payload-class satellites include a variety of spacecraft equipped with specific instruments for various scientific and technological missions. These include communications satellites like Starlink; space stations such as the ISS; scientific satellites like the Hubble; Earth observation satellites from companies like Planet Labs, Umbra, and HawkEye 360; GPS; miniature CubeSats for education and research; and military/defense satellites.

Loading next visibility...
Identifier
28737, 2005-024A
Orbit
SSO
Country
Flag of CNCN / PRC
Related business
Manufacturer
SAST
Mission
Operational Civil Technology
Bus & Motor
FY-1?, Unknown motor
Mass
~1,000 kg wet, ~1,000 kg dry
Launch date (UTC)
2005-07-05 (20 years ago)
Launch vehicle
CHANG ZHENG 2D
Launch site
Jiuquan Satellite Launch Center, China (JSC)
Object type
Payload
Rocket body
Debris
Shape & HBR
Box + 1 Pan, 1.0 m
Radar Cross Section
6.000 m², Large (>1 m²)

Expand to show TLE details & history
Last TLE update: 6 hours ago

TLE from 6 hours ago
0 SJ-7
1 28737U 05024A   25353.31078880  .00006108  00000-0  30056-3 0  9993
2 28737  97.7468  13.7978 0015381 299.3735  60.5962 15.18290655120701
Epoch: 2025-12-19T07:27Z
TLE epoch observation values (Epoch: 2025-12-19T07:27:32.152Z)
Latitude
Longitude
173.76006°
Altitude
508.893 km
Speed
7.612 km/s
True Right ascension
00h 55m 11s
True Declination
0° 00' 00"
Sunlit
Object was in daylight at epoch
Visualization orbit readout
Latitude
Unknown
Longitude
Unknown
Altitude
Unknown
Speed
Unknown
Apparent Right ascension
Unknown
Apparent Declination
Unknown
Sunlit
N/A
Visualization observer readout
Local Sidereal Time
11:58:43
Azimuth
Unknown
Elevation
Unknown
Doppler factor
Unknown
Orbital elements
Apogee altitude
518.581 km
Perigee altitude
497.398 km
Semi-major axis
6,886.126 km
Eccentricity
0.00154
Inclination
97.7468°
RAAN
13.7978°
Arg. of periapsis
299.3735°
True anomaly
60.74989°
Mean anomaly
60.5962°
Eccentric anomaly
60.67303°
Mean motion
3.79822 °/min
Orbital period
94.78 mins
BSTAR
0.00030056
Loading maneuver chart data...
Computing Atmospheric mass density...
Loading historical data...
Loading historical data...
Loading historical data...
Loading historical data...
Loading historical data...
Loading historical data...
Loading historical data...

Documentation

Showing up to 5 results
|